1531936800.5,13976,17.63,73594.3,7.99,7.33,7.29,0,*7B
1531936801.69,13977,17.56,73594.5,7.99,7.33,7.33,0,*71
1531936802.89,13978,17.56,73592.5,7.99,7.29,7.33,0,*75
1531936804.09,13979,17.56,73602.3,7.99,7.41,7.41,0,*7F
1531936805.29,13980,17.56,73596.3,7.99,7.41,7.41,0,*79
1531936806.49,13981,17.56,73594.3,7.99,7.33,7.29,0,*73
1531936807.68,13982,17.56,73588.3,7.99,7.33,7.33,0,*7B
1531936808.86,13983,17.56,73584.3,7.97,7.33,7.33,0,*74
1531936810.06,13984,17.56,73584.8,7.99,7.29,7.33,0,*76
1531936811.27,13985,17.63,73594.8,7.99,7.29,7.29,0,*7C
1531936812.48,13986,17.56,73592.8,7.99,7.29,7.29,0,*7F
1531936813.69,13987,17.56,73604.3,7.99,7.29,7.29,0,*7E
1531936814.88,13988,17.56,73616.5,7.97,7.29,7.29,0,*7F
1531936816.09,13989,17.56,73614.5,7.99,7.29,7.29,0,*70
1531936817.32,13990,17.56,73606.3,7.99,7.29,7.27,0,*76
1531936818.52,13991,17.56,73594.3,7.99,7.33,7.29,0,*72
1531936819.75,13992,17.56,73598.8,7.99,7.29,7.19,0,*79
1531936820.98,13993,17.56,73596.5,7.97,7.27,7.27,0,*75
1531936822.16,13994,17.56,73592.3,7.97,7.33,7.33,0,*72
1531936823.33,13995,17.56,73596.8,7.97,7.33,7.41,0,*76
1531936824.5,13996,17.56,73596.5,7.97,7.33,7.33,0,*70
1531936825.69,13997,17.63,73604.5,7.97,7.33,7.29,0,*7A
1531936826.88,13998,17.56,73600.5,7.97,7.29,7.29,0,*7E
1531936828.08,13999,17.56,73598.3,7.99,7.33,7.29,0,*7A
1531936829.29,14000,17.56,73598.5,7.99,7.29,7.29,0,*7F
1531936830.5,14001,17.56,73602.8,7.99,7.29,7.29,0,*7E
1531936831.71,14002,17.56,73608.3,7.99,7.29,7.29,0,*7D
1531936832.9,14003,17.56,73612.8,7.97,7.29,7.29,0,*72
1531936834.08,14004,17.56,73608.3,7.97,7.33,7.29,0,*7E
1531936835.27,14005,17.56,73602.5,7.97,7.29,7.29,0,*74
1531936836.46,14006,17.56,73604.0,7.97,7.29,7.29,0,*77
1531936837.65,14007,17.56,73610.0,7.97,7.29,7.29,0,*76
1531936838.84,14008,17.56,73614.5,7.97,7.29,7.29,0,*79
1531936840.02,14009,17.56,73614.8,7.97,7.33,7.33,0,*78
1531936841.2,14010,17.56,73618.3,7.97,7.33,7.29,0,*7B
1531936842.44,14011,17.56,73614.8,7.95,7.27,7.29,0,*7D
1531936843.67,14012,17.56,73614.3,7.95,7.23,7.29,0,*7A
1531936844.86,14013,17.56,73610.5,7.97,7.29,7.29,0,*73
1531936846.03,14014,17.56,73614.5,7.97,7.33,7.33,0,*74
1531936847.21,14015,17.63,73616.5,7.97,7.45,7.41,0,*71
1531936848.39,14016,17.56,73612.8,7.97,7.41,7.41,0,*76
1531936849.56,14017,17.56,73612.5,7.97,7.33,7.41,0,*72
1531936850.74,14018,17.56,73612.3,7.97,7.33,7.33,0,*78
1531936851.92,14019,17.56,73618.8,7.97,7.33,7.29,0,*72
1531936853.1,14020,17.56,73618.3,7.97,7.29,7.33,0,*78
1531936854.27,14021,17.56,73610.5,7.97,7.33,7.33,0,*72
1531936855.45,14022,17.56,73606.8,7.97,7.41,7.41,0,*71
1531936856.62,14023,17.56,73618.5,7.97,7.33,7.33,0,*70
1531936857.8,14024,17.56,73606.3,7.97,7.33,7.29,0,*7C
1531936858.98,14025,17.63,73620.3,7.97,7.33,7.29,0,*7D
1531936860.16,14026,17.56,73616.0,7.97,7.29,7.33,0,*7E
1531936861.34,14027,17.56,73614.5,7.97,7.41,7.33,0,*71
1531936862.52,14028,17.56,73600.3,7.97,7.33,7.29,0,*70
1531936863.7,14029,17.63,73606.8,7.97,7.33,7.29,0,*71
1531936864.87,14030,17.56,73610.0,7.97,7.33,7.33,0,*72
1531936866.05,14031,17.63,73616.0,7.97,7.33,7.33,0,*73
1531936867.22,14032,17.56,73620.0,7.97,7.33,7.33,0,*70
1531936868.41,14033,17.56,73624.5,7.97,7.29,7.29,0,*71
1531936869.66,14034,17.56,73614.5,7.95,7.23,7.23,0,*74
1531936870.9,14035,17.56,73612.5,7.97,7.27,7.27,0,*77
1531936872.13,14036,17.56,73616.5,7.97,7.27,7.27,0,*74
1531936873.32,14037,17.56,73616.3,7.97,7.29,7.29,0,*75
1531936874.58,14038,17.56,73620.0,7.95,7.27,7.27,0,*78
1531936875.75,14039,17.56,73614.5,7.97,7.33,7.33,0,*7B
1531936876.92,14040,17.56,73612.8,7.97,7.41,7.33,0,*70
1531936878.16,14041,17.56,73612.0,7.95,7.27,7.29,0,*78
1531936879.33,14042,17.56,73602.8,7.97,7.33,7.33,0,*77
1531936880.52,14043,17.56,73600.5,7.97,7.29,7.29,0,*76
1531936881.71,14044,17.56,73614.3,7.97,7.29,7.29,0,*71
1531936882.89,14045,17.63,73608.5,7.97,7.33,7.29,0,*7B
1531936884.08,14046,17.56,73606.0,7.97,7.29,7.29,0,*73
1531936885.26,14047,17.63,73606.5,7.97,7.33,7.41,0,*77
1531936886.43,14048,17.56,73608.8,7.97,7.33,7.33,0,*7D
1531936887.62,14049,17.56,73608.5,7.97,7.29,7.29,0,*7C
1531936888.8,14050,17.56,73604.5,7.97,7.05,7.09,0,*78
1531936890.05,14051,17.56,73612.3,7.99,7.27,7.27,0,*7B
1531936891.28,14052,17.56,73618.5,7.97,7.19,7.27,0,*7B
1531936892.5,14053,17.56,73622.5,7.97,7.27,7.29,0,*79
1531936893.68,14054,17.56,73624.3,7.97,7.29,7.33,0,*7B
1531936894.85,14055,17.56,73620.8,7.97,7.33,7.33,0,*71
1531936896.02,14056,17.56,73624.0,7.97,7.33,7.33,0,*72
1531936897.2,14057,17.56,73634.3,7.97,7.33,7.29,0,*78
1531936898.41,14058,17.56,73628.3,7.99,7.29,7.29,0,*72
1531936899.6,14059,17.63,73626.0,7.97,7.29,7.29,0,*7D
1531936900.79,14060,17.56,73606.0,7.97,7.29,7.29,0,*77
1531936901.97,14061,17.56,73614.8,7.97,7.29,7.33,0,*7D
1531936903.18,14062,17.56,73614.3,7.97,7.29,7.27,0,*7B
1531936904.39,14063,17.56,73624.0,7.97,7.29,7.27,0,*7A
1531936905.57,14064,17.56,73626.3,7.97,7.33,7.33,0,*73
1531936906.76,14065,17.56,73626.3,7.97,7.29,7.29,0,*72
1531936907.94,14066,17.63,73624.0,7.97,7.33,7.29,0,*7A
1531936909.12,14067,17.56,73620.3,7.97,7.33,7.29,0,*7B
1531936910.33,14068,17.56,73622.3,7.97,7.27,7.29,0,*71
1531936911.51,14069,17.56,73610.5,7.97,7.33,7.33,0,*7E
1531936912.68,14070,17.56,73608.0,7.97,7.33,7.41,0,*73
1531936913.86,14071,17.63,73614.5,7.97,7.33,7.41,0,*72
1531936915.06,14072,17.56,73612.8,7.97,7.27,7.33,0,*71
1531936916.23,14073,17.56,73612.0,7.97,7.33,7.33,0,*75
1531936917.41,14074,17.56,73628.3,7.97,7.33,7.33,0,*72
1531936918.58,14075,17.56,73630.8,7.97,7.33,7.33,0,*73
1531936919.77,14076,17.56,73614.5,7.97,7.29,7.29,0,*70
1531936921.02,14077,17.56,73610.5,7.95,7.15,7.23,0,*76
1531936922.25,14078,17.56,73600.8,7.97,7.27,7.27,0,*7E
1531936923.44,14079,17.63,73608.8,7.97,7.29,7.29,0,*7F
1531936924.63,14080,17.63,73618.8,7.97,7.29,7.29,0,*79
1531936925.81,14081,17.56,73606.0,7.97,7.33,7.29,0,*73
1531936927.01,14082,17.56,73620.3,7.97,7.29,7.29,0,*7B
1531936928.21,14083,17.56,73612.0,7.97,7.27,7.33,0,*7F
1531936929.4,14084,17.56,73612.8,7.97,7.29,7.29,0,*7D
1531936930.59,14085,17.56,73612.0,7.97,7.29,7.29,0,*7C
1531936931.78,14086,17.56,73616.8,7.97,7.29,7.29,0,*7F
1531936932.97,14087,17.56,73616.8,7.97,7.29,7.29,0,*7E
1531936934.2,14088,17.56,73624.3,7.97,7.15,7.15,0,*71
1531936935.41,14089,17.56,73624.5,7.97,7.27,7.29,0,*7E
1531936936.59,14090,17.56,73628.8,7.97,7.33,7.29,0,*73
1531936937.77,14091,17.56,73626.8,7.97,7.29,7.33,0,*72
1531936938.96,14092,17.56,73622.5,7.97,7.33,7.29,0,*71
1531936940.14,14093,17.56,73622.8,7.97,7.33,7.29,0,*70
1531936941.4,14094,17.56,73624.3,7.95,7.27,7.27,0,*7E
1531936942.58,14095,17.56,73610.5,7.97,7.33,7.29,0,*76
1531936943.77,14096,17.56,73610.8,7.97,7.29,7.29,0,*7E
1531936944.94,14097,17.56,73614.8,7.97,7.33,7.33,0,*7F
1531936946.13,14098,17.56,73618.3,7.97,7.29,7.29,0,*70
1531936947.31,14099,17.56,73616.5,7.97,7.29,7.33,0,*7A
1531936948.48,14100,17.56,73616.5,7.97,7.33,7.33,0,*70
1531936949.69,14101,17.56,73610.0,7.95,7.29,7.37,0,*7C
1531936950.92,14102,17.56,73604.8,7.97,7.19,7.19,0,*72
1531936952.15,14103,17.56,73608.3,7.97,7.23,7.19,0,*7A
1531936953.36,14104,17.56,73610.8,7.97,7.29,7.27,0,*7A
1531936954.6,14105,17.56,73602.5,7.95,7.27,7.29,0,*79
1531936955.79,14106,17.56,73618.0,7.97,7.29,7.29,0,*76
1531936957.02,14107,17.56,73612.3,7.95,7.29,7.27,0,*7B
1531936958.26,14108,17.56,73622.0,7.95,7.27,7.29,0,*74
1531936959.44,14109,17.56,73614.3,7.97,7.29,7.33,0,*72
1531936960.66,14110,17.56,73580.5,7.95,7.29,7.29,0,*73
1531936961.83,14111,17.56,73614.3,7.97,7.41,7.33,0,*75
1531936963.08,14112,17.56,73620.3,7.95,7.27,7.27,0,*71
1531936964.26,14113,17.56,73620.3,7.97,7.09,7.09,0,*72
1531936965.52,14114,17.56,73616.8,7.95,7.23,7.23,0,*77
1531936966.73,14115,17.56,73614.8,7.97,7.27,7.29,0,*7A
1531936967.93,14116,17.56,73620.0,7.97,7.27,7.33,0,*72
1531936969.17,14117,17.56,73618.5,7.95,7.27,7.29,0,*7A
1531936970.43,14118,17.56,73618.3,7.95,7.27,7.27,0,*7B
1531936971.63,14119,17.56,73622.0,7.97,7.19,7.09,0,*79
1531936972.86,14120,17.56,73614.3,7.97,7.19,7.27,0,*7F
1531936974.1,14121,17.56,73578.8,7.97,7.27,7.27,0,*73
1531936975.35,14122,17.56,73606.3,7.95,7.23,7.23,0,*72
1531936976.6,14123,17.56,73620.0,7.95,7.23,7.23,0,*73
1531936977.81,14124,17.56,73604.8,7.97,7.29,7.27,0,*78
1531936979.07,14125,17.56,73598.5,7.95,7.23,7.23,0,*75
1531936980.3,14126,17.56,73608.0,7.97,7.19,7.15,0,*78
1531936981.55,14127,17.56,73610.8,7.95,7.15,7.23,0,*72
1531936982.76,14128,17.56,73616.0,7.97,7.29,7.27,0,*74
1531936984.01,14129,17.56,73620.8,7.95,7.27,7.27,0,*79
1531936985.19,14130,17.56,73610.0,7.97,7.29,7.33,0,*78
1531936986.45,14131,17.56,73600.8,7.95,7.27,7.27,0,*70
1531936987.71,14132,17.56,73600.3,7.95,7.23,7.27,0,*77
1531936988.89,14133,17.56,73610.8,7.97,7.29,7.33,0,*7B
1531936990.15,14134,17.56,73612.5,7.95,7.27,7.27,0,*75
1531936991.4,14135,17.56,73620.8,7.95,7.27,7.27,0,*74
1531936992.66,14136,17.56,73606.3,7.95,7.23,7.27,0,*73
1531936993.87,14137,17.56,73596.5,7.97,7.19,7.29,0,*77
1531936995.08,14138,17.56,73602.5,7.97,7.27,7.29,0,*75
1531936996.32,14139,17.56,73600.0,7.95,7.29,7.27,0,*76
1531936997.57,14140,17.56,73600.8,7.95,7.27,7.27,0,*76
1531936998.75,14141,17.56,73600.5,7.97,7.05,7.05,0,*75
1531936999.95,14142,17.56,73602.8,7.95,7.01,6.93,0,*7E
1531937001.2,14143,17.56,73608.0,7.95,7.15,7.23,0,*70
1531937002.45,14144,17.56,73606.3,7.95,7.23,7.23,0,*72
1531937003.71,14145,17.56,73614.0,7.95,7.27,7.23,0,*77
1531937004.96,14146,17.56,73614.8,7.95,7.27,7.27,0,*70
1531937006.18,14147,17.56,73614.3,7.95,7.29,7.29,0,*71
1531937007.39,14148,17.56,73604.0,7.95,7.29,7.29,0,*7E
1531937008.65,14149,17.56,73606.3,7.95,7.27,7.27,0,*7F
1531937009.86,14150,17.56,73600.0,7.97,7.27,7.29,0,*7B
1531937011.1,14151,17.56,73598.8,7.95,7.29,7.27,0,*78
1531937012.28,14152,17.56,73606.3,7.97,7.33,7.29,0,*7C
1531937013.54,14153,17.56,73608.0,7.95,7.27,7.27,0,*74
1531937014.79,14154,17.56,73610.3,7.95,7.27,7.27,0,*73
1531937016.05,14155,17.56,73600.3,7.95,7.27,7.27,0,*72
1531937017.28,14156,17.56,73604.8,7.95,7.29,7.27,0,*7F
1531937018.54,14157,17.56,73600.5,7.95,7.23,7.11,0,*71
1531937019.79,14158,17.56,73602.5,7.95,7.23,7.23,0,*7F
1531937021.05,14159,17.56,73610.5,7.95,7.15,7.23,0,*7B
1531937022.3,14160,17.56,73604.3,7.95,7.27,7.27,0,*74
1531937023.49,14161,17.56,73602.3,7.97,7.29,7.29,0,*77
1531937024.75,14162,17.56,73606.3,7.95,7.27,7.27,0,*76
1531937026.01,14163,17.56,73614.8,7.95,7.27,7.27,0,*77
1531937027.26,14164,17.56,73598.8,7.95,7.27,7.23,0,*74
1531937028.52,14165,17.56,73592.5,7.95,7.23,7.23,0,*71
1531937029.75,14166,17.56,73586.8,7.97,7.27,7.27,0,*70
1531937031.01,14167,17.63,73596.8,7.95,7.27,7.27,0,*73
1531937032.24,14168,17.56,73596.0,7.95,7.29,7.27,0,*72
1531937033.47,14169,17.56,73604.5,7.95,7.27,7.33,0,*78
1531937034.68,14170,17.56,73602.5,7.95,7.29,7.29,0,*75
1531937035.94,14171,17.63,73600.5,7.95,7.23,7.27,0,*70
1531937037.15,14172,17.56,73596.8,7.95,7.29,7.29,0,*77
1531937038.41,14173,17.56,73608.8,7.95,7.27,7.27,0,*76
1531937039.64,14174,17.56,73592.3,7.95,7.29,7.27,0,*7F
1531937040.87,14175,17.56,73594.0,7.97,7.19,7.19,0,*72
1531937042.13,14176,17.56,73594.5,7.95,7.23,7.23,0,*73
1531937043.38,14177,17.56,73600.8,7.95,7.23,7.23,0,*72
1531937044.59,14178,17.56,73610.3,7.95,7.29,7.29,0,*7D
1531937045.85,14179,17.56,73610.5,7.95,7.27,7.27,0,*7C
1531937047.06,14180,17.56,73614.8,7.95,7.29,7.29,0,*7A
1531937048.32,14181,17.56,73604.0,7.95,7.27,7.23,0,*7F
1531937049.57,14182,17.56,73612.5,7.95,7.27,7.23,0,*7C
1531937050.78,14183,17.56,73618.3,7.97,7.29,7.27,0,*75
1531937052.04,14184,17.56,73626.0,7.95,7.27,7.27,0,*7E
1531937053.29,14185,17.56,73616.0,7.95,7.15,7.15,0,*7F
1531937054.55,14186,17.56,73606.5,7.95,7.23,7.23,0,*7C
1531937055.8,14187,17.56,73606.3,7.95,7.23,7.15,0,*78
1531937057.04,14188,17.56,73622.5,7.93,7.23,7.23,0,*74
1531937058.27,14189,17.56,73622.8,7.93,7.23,7.23,0,*75
1531937059.48,14190,17.56,73614.8,7.93,7.29,7.27,0,*73
1531937060.71,14191,17.56,73618.0,7.93,7.23,7.27,0,*78
1531937061.94,14192,17.56,73616.3,7.93,7.23,7.23,0,*7F
1531937063.17,14193,17.56,73618.8,7.93,7.27,7.23,0,*7A
1531937064.41,14194,17.56,73624.5,7.93,7.27,7.27,0,*79
1531937065.66,14195,17.56,73624.0,7.95,7.23,7.23,0,*7E
1531937066.91,14196,17.56,73628.0,7.95,7.27,7.23,0,*79
1531937068.15,14197,17.56,73606.3,7.95,7.27,7.29,0,*72
1531937069.41,14198,17.56,73602.8,7.95,7.27,7.27,0,*73
1531937070.66,14199,17.56,73600.5,7.95,7.23,7.23,0,*72
1531937071.9,14200,17.56,73612.0,7.95,7.23,7.29,0,*7B
1531937073.14,14201,17.56,73620.5,7.93,7.27,7.27,0,*76
1531937074.37,14202,17.56,73614.5,7.93,7.27,7.23,0,*71
1531937075.57,14203,17.56,73600.3,7.93,7.05,7.11,0,*71
1531937076.77,14204,17.56,73596.8,7.93,7.11,7.05,0,*76
1531937077.95,14205,17.56,73604.8,7.93,7.05,7.01,0,*76
1531937079.15,14206,17.56,73606.5,7.93,7.11,7.05,0,*74
1531937080.38,14207,17.56,73600.0,7.93,7.23,7.23,0,*70
1531937081.61,14208,17.56,73602.0,7.93,7.19,7.23,0,*76
1531937082.84,14209,17.56,73604.8,7.93,7.23,7.23,0,*7E
1531937084.07,14210,17.56,73596.3,7.93,7.23,7.23,0,*76
1531937085.27,14211,17.56,73584.3,7.93,7.19,7.05,0,*7A
1531937086.44,14212,17.56,73596.5,7.89,7.01,7.01,0,*7F
1531937087.67,14213,17.56,73594.5,7.93,7.23,7.23,0,*75
1531937088.9,14214,17.56,73592.5,7.93,7.23,7.23,0,*72
1531937090.11,14215,17.56,73582.8,7.93,7.29,7.27,0,*7D
1531937091.35,14216,17.56,73574.5,7.93,7.27,7.27,0,*70
1531937092.58,14217,17.56,73580.8,7.93,7.27,7.27,0,*71
1531937093.81,14218,17.56,73596.0,7.93,7.27,7.27,0,*7E
1531937095.05,14219,17.56,73600.5,7.93,7.27,7.27,0,*7F
1531937096.25,14220,17.56,73598.8,7.93,7.01,7.15,0,*70
1531937097.47,14221,17.56,73596.3,7.95,6.91,6.83,0,*71
1531937098.7,14222,17.56,73600.0,7.93,7.11,7.15,0,*73
1531937099.93,14223,17.56,73600.8,7.89,7.19,7.19,0,*7D
1531937101.17,14224,17.56,73602.5,7.93,7.23,7.23,0,*71
1531937102.4,14225,17.56,73598.5,7.93,7.27,7.27,0,*70
1531937103.63,14226,17.56,73598.8,7.89,7.23,7.23,0,*78
1531937104.86,14227,17.56,73600.8,7.93,7.23,7.23,0,*72
1531937106.09,14228,17.56,73602.0,7.89,7.23,7.23,0,*76
1531937107.33,14229,17.56,73602.0,7.93,7.27,7.27,0,*7C
1531937108.56,14230,17.56,73600.3,7.89,7.23,7.23,0,*7F
1531937109.79,14231,17.56,73600.0,7.89,7.23,7.23,0,*7E
1531937110.96,14232,17.56,73602.0,7.93,7.05,7.01,0,*72
1531937112.19,14233,17.56,73602.8,7.89,7.19,7.19,0,*7C
1531937113.42,14234,17.56,73600.8,7.89,7.19,7.27,0,*76
1531937114.63,14235,17.56,73596.3,7.93,7.29,7.11,0,*7A
1531937115.86,14236,17.56,73600.3,7.93,7.23,7.23,0,*72
1531937117.05,14237,17.56,73604.0,7.93,7.37,7.29,0,*7C
1531937118.26,14238,17.56,73604.3,7.93,7.29,7.27,0,*72
1531937119.47,14239,17.56,73596.5,7.93,7.27,7.29,0,*73
1531937120.66,14240,17.56,73600.8,7.93,7.29,7.29,0,*73
1531937121.9,14241,17.56,73602.5,7.89,7.23,7.27,0,*7D
1531937123.09,14242,17.56,73626.5,7.93,7.29,7.29,0,*71
1531937124.32,14243,17.56,73642.8,7.93,7.27,7.27,0,*70
1531937125.55,14244,17.56,73598.5,7.93,7.27,7.27,0,*77
1531937126.79,14245,17.56,73564.3,7.89,7.27,6.65,0,*7A
1531937127.96,14246,17.56,73610.5,7.93,7.01,6.93,0,*7F
1531937129.19,14247,17.56,73610.5,7.89,7.19,7.19,0,*7F
1531937130.42,14248,17.56,73612.8,7.93,7.23,7.23,0,*7B
1531937131.65,14249,17.56,73620.5,7.93,7.27,7.27,0,*7A
1531937132.89,14250,17.56,73626.5,7.93,7.23,7.27,0,*76
1531937134.12,14251,17.56,73624.5,7.93,7.23,7.23,0,*73
1531937135.35,14252,17.56,73626.5,7.93,7.19,7.23,0,*79
1531937136.57,14253,17.56,73626.5,7.93,7.15,7.23,0,*74
1531937137.78,14254,17.56,73614.3,7.93,7.05,7.11,0,*73
1531937138.95,14255,17.56,73616.0,7.89,7.01,7.09,0,*74
1531937140.13,14256,17.56,73618.5,7.93,7.01,7.05,0,*70
1531937141.3,14257,17.56,73616.0,7.93,7.01,7.05,0,*71
1531937142.48,14258,17.56,73604.0,7.89,7.09,7.09,0,*71
1531937143.65,14259,17.56,73602.5,7.93,7.05,7.05,0,*7B
1531937144.83,14260,17.56,73608.8,7.89,7.09,7.09,0,*7A
1531937146.04,14261,17.56,73616.5,7.93,7.05,7.11,0,*75
1531937147.21,14262,17.56,73612.3,7.89,7.01,7.01,0,*78
1531937148.44,14263,17.56,73614.8,7.93,7.11,7.11,0,*72
1531937149.64,14264,17.63,73612.5,7.89,7.01,7.11,0,*7F
1531937150.87,14265,17.56,73604.8,7.93,7.23,7.23,0,*74
1531937152.1,14266,17.56,73598.3,7.89,7.11,7.19,0,*74
1531937153.33,14267,17.56,73598.3,7.89,7.19,7.19,0,*7D
1531937154.5,14268,17.56,73600.3,7.89,7.01,7.01,0,*72
1531937155.73,14269,17.56,73596.5,7.89,7.19,7.19,0,*73
1531937156.96,14270,17.56,73598.0,7.89,7.23,7.23,0,*7B
1531937158.19,14271,17.56,73596.5,7.89,7.19,7.11,0,*72
1531937159.39,14272,17.56,73602.8,7.89,6.91,6.97,0,*7F
1531937160.63,14273,17.56,73596.8,7.89,7.23,7.19,0,*71
1531937161.86,14274,17.56,73606.5,7.89,7.23,7.19,0,*76
1531937163.09,14275,17.56,73604.3,7.89,7.23,7.19,0,*77
1531937164.32,14276,17.56,73604.0,7.89,7.19,7.19,0,*7D
1531937165.55,14277,17.56,73604.8,7.89,7.19,7.19,0,*7C
1531937166.78,14278,17.56,73606.0,7.93,7.23,7.23,0,*78
1531937168.01,14279,17.56,73602.0,7.89,7.19,7.19,0,*72
1531937169.24,14280,17.56,73604.5,7.93,7.23,7.23,0,*7F
1531937170.47,14281,17.56,73604.0,7.89,7.19,7.19,0,*75
1531937171.7,14282,17.56,73602.0,7.89,7.19,7.19,0,*76
1531937172.93,14283,17.56,73606.3,7.89,7.23,7.19,0,*7E
1531937174.16,14284,17.56,73608.3,7.89,7.23,7.23,0,*70
1531937175.4,14285,17.56,73606.0,7.89,7.23,7.23,0,*71
1531937176.63,14286,17.56,73610.5,7.89,7.27,7.23,0,*76
1531937177.84,14287,17.56,73612.5,7.93,7.27,7.29,0,*76
1531937179.07,14288,17.56,73612.0,7.89,7.27,7.27,0,*7C
1531937180.3,14289,17.56,73612.0,7.89,7.23,7.23,0,*7D
1531937181.54,14290,17.56,73610.0,7.93,7.27,7.27,0,*7E
1531937182.75,14291,17.56,73610.8,7.93,7.27,7.29,0,*71
1531937183.98,14292,17.56,73612.3,7.89,7.23,7.23,0,*77
1531937185.19,14293,17.56,73610.0,7.93,7.29,7.27,0,*73
1531937186.42,14294,17.56,73612.5,7.89,7.27,7.23,0,*75
1531937187.66,14295,17.56,73610.8,7.89,7.23,7.23,0,*70
1531937188.89,14296,17.56,73620.0,7.89,7.23,7.23,0,*73
1531937190.12,14297,17.56,73622.5,7.93,7.27,7.27,0,*79
1531937191.3,14298,17.56,73622.8,7.93,7.37,7.29,0,*79
1531937192.54,14299,17.56,73618.8,7.93,7.27,7.27,0,*77
1531937193.75,14300,17.56,73618.0,7.93,7.29,7.27,0,*78
1531937194.96,14301,17.56,73628.0,7.93,7.27,7.29,0,*79
1531937196.17,14302,17.56,73630.8,7.93,7.29,7.27,0,*7A
1531937197.41,14303,17.56,73632.0,7.93,7.27,7.27,0,*75
1531937198.64,14304,17.56,73620.0,7.89,7.23,7.23,0,*79
1531937199.87,14305,17.56,73608.5,7.89,7.27,7.23,0,*7C
1531937201.1,14306,17.56,73604.8,7.89,7.19,7.11,0,*73
1531937202.33,14307,17.56,73614.5,7.89,7.19,7.19,0,*7A
1531937203.56,14308,17.56,73614.8,7.93,7.19,7.11,0,*76
1531937204.79,14309,17.56,73624.5,7.93,7.11,7.11,0,*7F
1531937206.02,14310,17.56,73616.3,7.93,7.15,7.15,0,*77
1531937207.25,14311,17.56,73600.5,7.89,7.19,7.19,0,*7D
1531937208.48,14312,17.56,73596.3,7.89,7.11,7.19,0,*76
1531937209.66,14313,17.56,73602.8,7.89,6.97,7.01,0,*71
1531937210.89,14314,17.56,73592.8,7.89,7.11,7.19,0,*70
1531937212.12,14315,17.56,73590.3,7.89,7.23,7.19,0,*70
1531937213.35,14316,17.56,73600.8,7.89,7.23,7.19,0,*73
1531937214.58,14317,17.56,73616.5,7.93,7.27,7.23,0,*74
1531937215.82,14318,17.56,73622.3,7.89,7.23,7.19,0,*7D
1531937217.05,14319,17.56,73624.5,7.89,7.19,7.19,0,*75
1531937218.27,14320,17.56,73608.8,7.89,7.19,7.11,0,*77
1531937219.48,14321,17.56,73610.3,7.89,7.11,7.09,0,*77
1531937220.71,14322,17.56,73632.0,7.89,7.19,7.19,0,*7D
1531937221.94,14323,17.56,73624.8,7.89,7.19,7.19,0,*7C
1531937223.17,14324,17.56,73626.3,7.89,7.23,7.19,0,*72
1531937224.4,14325,17.56,73638.0,7.93,7.27,7.23,0,*75
1531937225.63,14326,17.56,73638.5,7.89,7.23,7.23,0,*79
1531937226.86,14327,17.56,73618.0,7.89,7.23,7.19,0,*71
1531937228.09,14328,17.56,73600.3,7.89,7.19,7.23,0,*7E
1531937229.32,14329,17.56,73620.3,7.89,7.23,7.23,0,*76
1531937230.55,14330,17.56,73630.5,7.89,7.27,7.27,0,*7E
1531937231.79,14331,17.56,73624.8,7.89,7.23,7.23,0,*7F
1531937233.02,14332,17.56,73624.8,7.89,7.23,7.23,0,*7C
1531937234.25,14333,17.56,73624.5,7.89,7.23,7.27,0,*79
1531937235.48,14334,17.56,73620.8,7.89,7.23,7.27,0,*7E
1531937236.71,14335,17.56,73622.8,7.89,7.19,7.23,0,*72
1531937237.94,14336,17.56,73618.3,7.93,7.23,7.27,0,*77
1531937239.16,14337,17.56,73618.8,7.93,7.27,7.29,0,*7C
1531937240.39,14338,17.56,73624.8,7.93,7.15,7.23,0,*78
1531937241.62,14339,17.56,73626.8,7.89,7.23,7.27,0,*73
1531937242.83,14340,17.56,73624.5,7.93,7.27,7.29,0,*7C
1531937244.07,14341,17.56,73622.0,7.93,7.27,7.27,0,*73
1531937245.3,14342,17.56,73622.8,7.89,7.23,7.19,0,*72
1531937246.53,14343,17.56,73620.5,7.89,7.23,7.19,0,*73
1531937247.75,14344,17.56,73632.5,7.93,7.27,7.29,0,*78
1531937248.94,14345,17.56,73654.5,7.93,7.29,7.29,0,*77
1531937250.17,14346,17.56,73634.3,7.93,7.27,7.27,0,*74
1531937251.41,14347,17.56,73576.0,7.93,7.27,7.27,0,*75
1531937252.64,14348,17.56,73606.5,7.93,7.27,7.27,0,*7A
1531937253.87,14349,17.56,73636.0,7.89,7.23,7.23,0,*70
1531937255.11,14350,17.56,73628.5,7.93,7.27,7.27,0,*73
1531937256.34,14351,17.56,73632.8,7.89,7.23,7.23,0,*79
1531937257.57,14352,17.56,73632.5,7.93,7.27,7.23,0,*75
1531937258.8,14353,17.56,73642.5,7.89,7.19,7.19,0,*7B
1531937260.03,14354,17.56,73634.0,7.93,7.23,7.23,0,*77
1531937261.26,14355,17.56,73632.5,7.93,7.15,7.23,0,*73
1531937262.49,14356,17.56,73638.0,7.89,7.19,7.19,0,*7E
1531937263.71,14357,17.56,73640.8,7.93,7.15,7.23,0,*71
1531937264.94,14358,17.56,73634.0,7.89,7.19,7.19,0,*70
1531937266.17,14359,17.56,73632.3,7.89,7.27,7.23,0,*75
1531937267.36,14360,17.56,73630.0,7.93,7.29,7.41,0,*7E
1531937268.54,14361,17.56,73628.8,7.93,7.29,7.37,0,*7E
1531937269.78,14362,17.56,73626.0,7.89,7.27,7.19,0,*74
1531937270.97,14363,17.56,73620.5,7.93,7.29,7.29,0,*73
1531937272.2,14364,17.56,73624.3,7.93,7.23,7.27,0,*70
1531937273.39,14365,17.56,73626.5,7.93,7.29,7.29,0,*75
1531937274.63,14366,17.56,73624.0,7.93,7.27,7.27,0,*76
1531937275.86,14367,17.56,73622.3,7.93,7.27,7.27,0,*77
1531937277.1,14368,17.56,73620.0,7.93,7.27,7.27,0,*78
1531937278.33,14369,17.56,73620.5,7.93,7.27,7.27,0,*79
1531937279.56,14370,17.56,73618.3,7.93,7.27,7.27,0,*71
1531937280.78,14371,17.56,73618.5,7.93,7.27,7.29,0,*7E
1531937282.01,14372,17.56,73616.8,7.89,7.27,7.23,0,*7C
1531937283.24,14373,17.56,73612.5,7.93,7.27,7.27,0,*72
1531937284.48,14374,17.56,73612.8,7.93,7.27,7.27,0,*75
1531937285.71,14375,17.56,73606.3,7.93,7.27,7.23,0,*70
1531937286.94,14376,17.56,73602.8,7.93,7.27,7.27,0,*77
1531937288.15,14377,17.56,73598.0,7.89,7.27,7.33,0,*78
1531937289.38,14378,17.56,73602.0,7.93,7.23,7.23,0,*79
1531937290.61,14379,17.56,73606.8,7.89,7.27,7.27,0,*73
1531937291.84,14380,17.56,73602.0,7.93,7.27,7.27,0,*7E
1531937293.08,14381,17.56,73602.5,7.89,7.23,7.19,0,*7D
1531937294.31,14382,17.56,73596.3,7.89,7.23,7.23,0,*77
1531937295.54,14383,17.56,73606.0,7.89,7.23,7.27,0,*72
1531937296.78,14384,17.56,73608.0,7.93,7.27,7.27,0,*7A
1531937298.01,14385,17.56,73602.8,7.89,7.23,7.23,0,*70
1531937299.24,14386,17.56,73602.0,7.93,7.27,7.27,0,*78
1531937300.47,14387,17.56,73608.5,7.89,7.23,7.23,0,*72
1531937301.7,14388,17.56,73610.3,7.93,7.23,7.23,0,*76
1531937302.93,14389,17.56,73606.8,7.89,7.19,7.19,0,*7C
1531937304.16,14390,17.56,73602.8,7.93,7.23,7.15,0,*7A
1531937305.34,14391,17.56,73608.5,7.89,7.09,7.09,0,*75
1531937306.52,14392,17.56,73614.5,7.89,7.09,7.09,0,*76
1531937307.75,14393,17.56,73600.8,7.93,7.23,7.23,0,*7C
1531937308.96,14394,17.56,73602.8,7.89,7.09,7.15,0,*7D
1531937310.19,14395,17.56,73608.5,7.89,7.19,7.19,0,*71
1531937311.42,14396,17.56,73610.8,7.89,7.11,7.11,0,*72
1531937312.65,14397,17.56,73606.8,7.89,7.23,7.23,0,*73
1531937313.88,14398,17.56,73610.0,7.89,7.19,7.23,0,*75
1531937315.1,14399,17.56,73610.5,7.89,7.19,7.23,0,*74
1531937316.33,14400,17.56,73616.0,7.89,7.23,7.23,0,*7A
1531937317.57,14401,17.56,73606.0,7.93,7.23,7.15,0,*75
1531937318.74,14402,17.56,73608.3,7.89,7.01,7.01,0,*78
1531937319.91,14403,17.56,73606.8,7.89,7.01,7.01,0,*79
1531937321.14,14404,17.56,73596.5,7.89,6.91,6.87,0,*79
1531937322.31,14405,17.56,73598.3,7.93,7.01,7.01,0,*74
1531937323.54,14406,17.56,73598.8,7.87,6.93,6.87,0,*77
1531937324.74,14407,17.56,73594.8,7.87,7.05,7.05,0,*73
1531937325.95,14408,17.56,73580.5,7.87,6.97,7.05,0,*76
1531937327.16,14409,17.56,73574.8,7.87,7.05,7.09,0,*71
1531937328.39,14410,17.56,73568.8,7.89,7.19,7.11,0,*73
1531937329.59,14411,17.56,73562.0,7.89,7.11,7.09,0,*73
1531937330.79,14412,17.56,73546.0,7.87,7.05,7.05,0,*77